User: anonymous
Location: Caltech
(34.1382°N, 118.1253°W)
Time: 21:12:31
(UTC-07:00)
Language:

Cosmos 1939 Rocket - Orbit

View from above orbital plane
View from above orbital plane
View from above satellite
View from above satellite

Ground track
Ground track

The orbit data is extracted from the following two-line orbital elements,

1 19046U 88032B   14208.10926436  .00000650  00000-0  57152-4 0  9341
2 19046 097.6499 261.9629 0033368 329.6562 030.2728 14.99607297414181
Epoch (UTC): 27 July 2014 02:37:20
Eccentricity: 0.0033368
inclination: 97.6499°
perigee height: 545 km
apogee height: 591 km
right ascension of ascending node: 261.9629°
argument of perigee: 329.6562°
revolutions per day: 14.99607297
mean anomaly at epoch: 30.2728°
orbit number at epoch: 41418

The dashed part of the orbit path shows where the satellite is in the earth's shadow,  

DLR